Date,TemperatureHighF,TemperatureAvgF,TemperatureLowF,DewpointHighF,DewpointAvgF,DewpointLowF,HumidityHigh,HumidityAvg,HumidityLow,PressureMaxIn,PressureMinIn,WindSpeedMaxMPH,WindSpeedAvgMPH,GustSpeedMaxMPH,PrecipitationSumIn
2013-1-1,42.3,38.9,34.9,32.0,29.1,23.0,78,69,53,30.00,29.90,5,0,5,0.00
2013-1-2,36.5,32.8,27.1,30.0,22.0,16.0,76,65,54,30.23,29.98,6,1,11,0.00
2013-1-3,38.2,29.7,24.0,22.0,19.4,16.0,81,67,51,30.25,30.14,2,0,7,0.00
2013-1-4,43.6,33.9,25.9,26.0,22.4,21.0,82,64,47,30.20,30.09,9,0,10,0.00
2013-1-5,43.8,37.1,29.1,31.0,24.0,20.0,76,60,47,30.37,30.14,5,1,9,0.01
2013-1-6,50.1,41.1,29.1,35.0,30.5,27.0,95,68,47,30.18,30.01,4,1,9,0.00
2013-1-7,45.1,39.2,28.5,32.0,28.3,25.0,92,66,52,30.42,30.14,7,2,11,0.00
2013-1-8,53.7,40.0,27.1,35.0,31.5,24.0,90,73,47,30.41,30.34,5,1,10,0.00
2013-1-9,48.3,39.0,29.6,42.0,35.7,28.0,96,88,58,30.37,30.23,5,0,10,0.01
2013-1-10,53.4,46.4,37.9,34.0,31.4,29.0,72,57,43,30.58,30.38,10,2,10,0.00
2013-1-11,44.8,40.9,35.7,41.0,35.9,30.0,99,83,64,30.49,30.09,4,0,9,0.04
2013-1-12,57.3,45.4,40.3,50.0,43.7,40.0,100,94,76,30.17,30.09,3,0,5,0.01
2013-1-13,57.2,49.3,41.8,57.0,49.4,42.0,100,100,99,30.11,29.95,6,1,7,0.01
2013-1-14,60.5,52.6,38.6,60.0,48.3,37.0,100,86,69,30.29,29.93,7,2,12,0.13
2013-1-15,39.2,38.0,34.4,39.0,37.6,34.0,99,98,95,30.32,30.14,4,1,6,0.69
2013-1-16,39.9,36.6,33.8,40.0,36.4,33.0,100,99,98,30.14,29.86,9,1,9,0.32
2013-1-17,41.9,39.3,36.1,40.0,35.2,32.0,100,86,69,30.11,29.97,6,1,11,0.02
2013-1-18,36.2,33.1,30.1,32.0,21.6,16.0,85,64,45,30.48,30.05,11,2,19,0.00
2013-1-19,56.1,41.8,30.5,32.0,28.0,24.0,79,60,40,30.40,29.95,10,3,14,0.00
2013-1-20,57.7,45.3,32.7,36.0,25.8,14.0,65,48,28,30.06,29.81,8,3,14,0.00
2013-1-21,45.0,35.0,28.8,28.0,20.8,14.0,65,57,46,30.08,29.77,7,3,17,0.00
2013-1-22,28.2,20.2,16.2,15.0,2.5,-1.0,58,47,36,30.28,29.94,9,4,16,0.00
2013-1-23,25.7,19.1,11.2,11.0,4.1,1.0,75,53,38,30.34,30.14,5,1,10,0.00
2013-1-24,26.0,20.2,15.6,16.0,10.8,5.0,90,69,43,30.52,30.08,12,2,18,0.00
2013-1-25,22.2,18.8,14.8,18.0,9.9,4.0,88,69,49,30.52,30.07,6,1,11,0.00
2013-1-26,33.0,26.4,21.1,25.0,21.6,18.0,89,82,68,30.43,30.08,5,1,8,0.04
2013-1-27,37.8,28.9,21.7,24.0,21.1,20.0,93,74,51,30.59,30.44,4,1,6,0.02
2013-1-28,47.3,36.3,30.9,43.0,33.5,24.0,97,89,74,30.48,30.03,5,2,9,0.16
2013-1-29,68.5,55.2,42.7,56.0,49.2,41.0,96,81,62,30.11,29.95,5,2,9,0.00
2013-1-30,71.1,61.1,56.0,65.0,58.0,52.0,100,90,76,29.94,29.21,10,3,17,1.48
2013-1-31,61.7,42.2,28.9,62.0,30.0,15.0,99,64,46,29.90,29.14,12,4,26,0.29
2013-2-1,31.0,25.6,18.3,26.0,13.3,6.0,91,61,46,30.39,29.79,12,3,18,0.00
2013-2-2,29.6,22.2,14.8,26.0,13.3,-99.9,93,72,50,30.39,30.02,5,1,13,0.00
2013-2-3,32.4,28.9,23.1,29.0,25.8,19.0,97,88,65,30.01,29.83,12,1,12,0.02
2013-2-4,35.8,30.0,23.1,23.0,17.7,14.0,71,60,50,30.09,29.89,8,2,12,0.00
2013-2-5,40.3,34.1,29.2,30.0,27.0,22.0,85,76,65,29.93,29.84,2,0,5,0.00
2013-2-6,45.5,36.3,29.8,32.0,28.2,23.0,94,74,54,30.34,29.93,8,2,18,0.00
2013-2-7,38.9,33.2,26.2,30.0,25.9,22.0,88,75,64,30.43,30.19,4,1,10,0.00
2013-2-8,40.5,35.6,32.0,38.0,32.6,24.0,99,89,67,30.18,29.74,10,2,17,0.21
2013-2-9,40.6,33.0,26.8,25.0,20.4,17.0,73,61,45,30.38,29.90,13,5,27,0.01
2013-2-10,44.1,33.3,21.0,27.0,20.4,17.0,88,61,39,30.47,30.22,7,1,10,0.00
2013-2-11,54.2,45.1,36.4,51.0,42.5,28.0,99,91,54,30.22,29.69,8,2,9,0.01
2013-2-12,56.9,47.8,40.3,35.0,31.0,28.0,69,53,39,29.98,29.80,9,2,14,0.00
2013-2-13,45.4,37.0,30.2,38.0,31.1,26.0,98,80,60,29.94,29.64,5,1,10,0.08
2013-2-14,49.2,38.5,30.5,35.0,31.3,29.0,98,78,51,30.01,29.78,6,1,9,0.02
2013-2-15,59.0,43.3,34.3,40.0,33.9,30.0,97,73,40,30.02,29.87,7,2,15,0.04
2013-2-16,37.9,34.3,29.2,35.0,29.7,19.0,99,84,61,30.00,29.83,7,2,13,0.00
2013-2-17,31.1,26.8,23.4,19.0,13.6,8.0,73,58,44,30.20,29.83,12,4,17,0.00
2013-2-18,42.7,30.5,19.0,20.0,13.2,9.0,70,50,32,30.38,30.14,6,2,14,0.00
2013-2-19,44.2,39.1,35.5,41.0,31.6,20.0,93,75,53,30.14,29.71,9,3,17,0.10
2013-2-20,38.9,31.7,24.0,25.0,17.5,11.0,65,56,44,30.15,29.84,13,4,16,0.00
2013-2-21,39.4,29.2,22.8,20.0,16.1,11.0,67,59,46,30.32,30.12,11,3,13,0.00
2013-2-22,32.4,30.5,28.2,30.0,24.4,18.0,93,79,63,30.37,30.20,5,1,10,0.04
2013-2-23,42.7,37.0,32.3,43.0,36.7,31.0,100,98,94,30.20,29.80,5,1,6,0.04
2013-2-24,51.6,40.9,30.8,41.0,32.6,20.0,99,75,44,30.10,29.78,12,4,18,0.00
2013-2-25,47.0,36.2,26.5,28.0,24.4,20.0,81,64,46,30.21,30.10,6,1,9,0.00
2013-2-26,42.8,36.2,28.8,43.0,33.4,25.0,100,89,75,30.21,29.60,7,1,19,0.48
2013-2-27,54.8,45.9,37.9,44.0,39.4,35.0,99,80,56,29.68,29.51,6,2,9,0.00
2013-2-28,46.0,41.7,37.4,39.0,32.4,28.0,93,70,52,29.72,29.62,6,2,12,0.02
2013-3-1,42.5,39.4,34.7,32.0,29.6,25.0,75,68,58,29.88,29.71,9,3,11,0.00
2013-3-2,36.0,32.1,28.9,25.0,23.5,22.0,78,70,59,29.88,29.81,9,3,11,0.00
2013-3-3,41.2,32.8,27.7,24.0,21.2,18.0,79,64,48,29.91,29.79,11,4,19,0.00
2013-3-4,44.7,33.7,27.2,24.0,19.2,16.0,68,56,42,30.03,29.91,11,3,17,0.00
2013-3-5,52.4,39.0,28.3,32.0,22.3,17.0,85,54,27,30.07,29.80,9,2,13,0.01
2013-3-6,36.5,33.8,32.2,35.0,33.0,31.0,98,96,88,29.99,29.59,12,4,25,0.01
2013-3-7,47.1,39.1,31.4,33.0,30.6,29.0,93,73,53,30.14,29.99,16,4,21,0.00
2013-3-8,49.1,40.8,34.4,32.0,29.6,28.0,80,65,49,30.25,30.13,19,5,23,0.00
2013-3-9,60.2,44.3,31.9,32.0,28.6,26.0,80,57,32,30.34,30.23,6,2,10,0.00
2013-3-10,62.9,46.4,30.2,34.0,28.7,23.0,87,55,24,30.31,30.19,8,2,15,0.00
2013-3-11,59.1,50.8,42.4,51.0,45.3,35.0,95,82,66,30.22,29.90,8,3,17,0.00
2013-3-12,57.0,51.9,40.8,56.0,46.2,32.0,99,81,63,29.94,29.69,11,5,18,0.63
2013-3-13,50.4,40.4,32.4,32.0,27.9,21.0,85,62,38,30.05,29.88,11,2,14,0.00
2013-3-14,46.3,36.9,30.8,22.0,20.0,17.0,65,52,36,30.11,30.02,13,4,20,0.00
2013-3-15,57.0,43.2,29.3,35.0,26.3,20.0,74,53,37,30.08,29.77,8,2,14,0.00
2013-3-16,60.0,46.7,37.9,50.0,38.3,34.0,88,73,56,29.89,29.61,10,2,10,0.02
2013-3-17,39.8,36.8,31.2,35.0,31.1,28.0,95,80,66,30.26,29.89,5,1,9,0.00
2013-3-18,37.2,34.9,30.3,36.0,31.1,24.0,99,87,62,30.31,29.88,5,1,10,0.40
2013-3-19,58.1,44.4,34.4,42.0,31.7,14.0,100,69,22,29.90,29.70,9,3,20,0.00
2013-3-20,53.1,43.5,33.5,27.0,19.2,15.0,64,39,28,29.98,29.75,10,3,19,0.00
2013-3-21,38.0,32.8,28.0,29.0,18.1,12.0,91,56,41,29.89,29.75,10,4,14,0.00
2013-3-22,47.6,36.5,25.6,24.0,19.4,13.0,61,51,38,29.99,29.88,8,3,14,0.00
2013-3-23,54.1,39.8,26.6,29.0,24.5,21.0,82,57,37,30.03,29.90,8,2,12,0.00
2013-3-24,42.4,36.4,29.7,32.0,26.1,23.0,95,68,49,29.99,29.64,8,1,10,0.01
2013-3-25,36.4,33.7,31.9,35.0,33.0,31.0,98,97,95,29.69,29.51,4,1,8,0.10
2013-3-26,48.7,40.5,31.2,37.0,32.2,29.0,99,75,49,29.99,29.70,9,2,13,0.02
2013-3-27,51.3,42.0,35.2,34.0,30.0,28.0,78,63,49,30.11,29.98,8,3,17,0.00
2013-3-28,48.0,41.8,35.0,33.0,31.0,28.0,76,66,55,30.22,30.08,11,3,17,0.00
2013-3-29,57.1,46.1,38.6,37.0,32.4,28.0,77,61,43,30.24,30.13,8,2,14,0.00
2013-3-30,59.8,47.1,34.4,35.0,30.4,27.0,84,56,30,30.21,30.09,7,1,11,0.00
2013-3-31,51.6,48.0,44.1,50.0,40.9,30.0,97,78,53,30.10,29.73,6,2,9,0.03
2013-4-1,64.8,48.9,38.4,45.0,38.5,26.0,99,70,43,29.97,29.71,9,3,20,0.00
2013-4-2,50.6,40.8,32.7,24.0,19.4,17.0,71,44,29,30.17,29.98,8,3,14,0.00
2013-4-3,52.5,39.8,28.8,22.0,19.4,15.0,70,46,27,30.38,30.17,9,3,18,0.00
2013-4-4,47.9,37.8,25.6,36.0,20.9,15.0,93,54,31,30.40,30.08,6,1,11,0.11
2013-4-5,64.4,48.2,36.2,39.0,34.3,26.0,98,66,31,30.07,29.81,9,3,13,0.19
2013-4-6,56.7,46.9,33.7,33.0,25.0,21.0,68,44,30,30.30,30.04,9,3,13,0.00
2013-4-7,70.9,56.5,38.9,44.0,38.0,30.0,80,52,37,30.25,29.96,11,4,15,0.00
2013-4-8,80.9,69.7,55.2,52.0,48.1,44.0,67,48,34,30.05,29.91,7,2,11,0.00
2013-4-9,87.0,76.4,63.1,59.0,55.8,52.0,71,50,36,30.05,29.89,7,3,12,0.00
2013-4-10,91.4,80.0,65.8,64.0,57.7,54.0,68,48,36,29.94,29.74,7,3,13,0.00
2013-4-11,86.1,72.0,56.6,64.0,58.8,54.0,90,66,39,29.84,29.69,11,2,19,0.00
2013-4-12,74.5,60.2,52.1,69.0,58.6,51.0,100,94,79,29.77,29.53,7,2,13,0.63
2013-4-13,68.9,56.5,43.0,51.0,43.5,40.0,94,65,39,29.92,29.75,7,2,15,0.00
2013-4-14,66.8,55.5,40.9,46.0,41.6,39.0,92,62,40,30.12,29.93,8,2,10,0.00
2013-4-15,63.5,58.8,54.9,53.0,48.5,44.0,79,69,63,30.26,30.10,7,2,13,0.00
2013-4-16,75.8,64.1,55.0,62.0,56.3,49.0,89,77,60,30.28,30.09,9,2,13,0.00
2013-4-17,77.3,66.0,58.2,65.0,60.5,57.0,100,84,65,30.20,30.09,8,2,11,0.07
2013-4-18,77.7,66.1,59.3,67.0,60.3,57.0,99,83,60,30.19,29.97,8,2,16,0.16
2013-4-19,77.3,66.5,50.4,69.0,62.3,49.0,98,87,70,29.96,29.57,10,3,15,1.09
2013-4-20,60.6,51.8,44.1,49.0,35.5,30.0,97,56,37,30.32,29.76,8,3,13,0.01
2013-4-21,55.2,46.4,37.3,34.0,28.7,24.0,72,51,37,30.57,30.32,7,2,11,0.00
2013-4-22,57.3,47.0,34.4,40.5,36.8,32.0,95,70,50,30.55,30.38,6,1,11,0.00
2013-4-23,59.7,50.8,44.8,48.0,43.1,38.0,87,75,60,30.38,30.10,3,1,6,0.00
2013-4-24,78.9,61.8,45.4,59.0,51.4,43.0,96,72,46,30.10,29.77,8,2,14,0.00
2013-4-25,64.2,54.0,44.0,52.0,36.9,32.0,77,55,33,30.29,29.96,9,2,17,0.01
2013-4-26,66.5,53.3,40.5,42.0,39.3,36.0,92,62,36,30.43,30.29,6,1,9,0.00
2013-4-27,72.0,57.5,41.5,46.0,41.9,40.0,95,60,35,30.39,30.25,6,1,9,0.00
2013-4-28,65.3,56.0,45.2,53.0,46.0,40.0,92,71,41,30.26,30.12,3,1,11,0.03
2013-4-29,59.5,55.4,52.8,59.0,54.3,46.0,99,96,70,30.14,30.02,7,1,10,0.20
2013-4-30,58.2,55.2,52.2,58.0,55.1,52.0,100,99,97,30.27,30.07,2,0,5,0.09
2013-5-1,70.8,57.9,44.6,52.0,46.0,41.0,99,69,38,30.40,30.26,6,1,9,0.00
2013-5-2,70.3,55.3,41.9,52.0,46.9,41.0,98,76,49,30.42,30.30,5,1,10,0.00
2013-5-3,69.2,55.4,45.2,50.0,45.5,42.0,98,72,43,30.36,30.27,9,1,17,0.00
2013-5-4,68.5,56.5,45.9,50.0,45.1,41.0,90,68,46,30.32,30.16,5,1,12,0.00
2013-5-5,63.5,53.1,45.0,47.0,43.6,40.0,88,71,51,30.23,30.13,6,1,11,0.00
2013-5-6,60.6,54.8,48.5,59.0,52.6,46.0,98,92,88,30.16,30.03,5,1,10,0.01
2013-5-7,61.8,59.0,57.2,62.0,59.0,57.0,100,100,98,30.04,29.90,5,1,10,0.56
2013-5-8,69.6,59.3,54.9,61.0,57.2,55.0,100,94,62,29.98,29.89,8,0,14,0.54
2013-5-9,72.6,60.9,53.2,64.0,58.1,53.0,100,91,68,29.98,29.90,8,0,11,0.11
2013-5-10,84.8,68.3,53.2,67.0,59.9,53.0,100,79,42,30.00,29.83,5,1,12,0.44
2013-5-11,76.9,66.0,62.3,68.0,64.3,61.0,100,95,68,29.89,29.68,5,1,8,0.62
2013-5-12,63.6,57.6,47.8,63.0,44.0,33.0,100,64,35,30.02,29.72,9,2,14,0.00
2013-5-13,60.3,50.3,41.6,38.0,33.8,28.0,83,56,32,30.15,30.01,7,1,13,0.00
2013-5-14,63.6,50.9,35.2,41.0,37.3,33.0,96,63,39,30.20,30.03,3,1,8,0.00
2013-5-15,85.1,66.4,53.0,67.0,54.8,42.0,83,67,51,30.02,29.66,4,1,10,0.00
2013-5-16,81.0,73.9,66.3,66.0,61.6,57.0,77,66,53,29.90,29.73,4,1,12,0.00
2013-5-17,83.4,71.3,58.5,61.0,57.3,52.0,93,64,37,30.10,29.90,7,1,7,0.00
2013-5-18,69.2,62.4,58.5,60.0,57.4,54.0,98,84,60,30.21,30.11,4,1,9,0.03
2013-5-19,74.2,65.0,58.6,68.0,63.2,58.0,100,94,76,30.18,30.06,4,0,7,0.02
2013-5-20,81.0,71.5,65.1,73.0,67.9,65.0,100,89,69,30.09,29.95,2,0,6,0.02
2013-5-21,83.3,73.4,66.4,74.0,69.5,66.0,100,88,71,29.97,29.85,5,1,9,0.00
2013-5-22,86.4,76.4,67.3,76.0,71.2,66.0,100,85,68,29.91,29.80,6,1,9,0.01
2013-5-23,80.0,71.1,63.6,71.0,67.2,63.0,99,88,70,29.88,29.72,5,1,10,0.13
2013-5-24,63.5,55.6,47.2,63.0,49.7,36.0,100,81,61,30.15,29.72,11,2,14,0.06
2013-5-25,64.8,53.7,42.8,45.0,38.9,35.0,77,59,40,30.18,30.07,9,2,17,0.00
2013-5-26,71.5,59.0,47.1,47.0,41.5,38.0,76,55,34,30.20,30.11,4,1,11,0.00
2013-5-27,68.9,59.3,45.7,52.0,47.6,43.0,93,68,42,30.26,30.16,3,0,4,0.00
2013-5-28,81.8,65.7,55.5,72.0,61.4,52.0,99,87,66,30.18,30.04,5,0,8,0.60
2013-5-29,87.6,76.2,66.0,73.0,68.4,65.0,99,78,54,30.10,30.04,3,1,6,0.00
2013-5-30,90.8,79.5,67.3,73.0,68.6,65.0,92,71,48,30.15,30.06,8,1,8,0.00
2013-5-31,89.9,79.2,66.5,70.0,67.5,65.0,94,69,49,30.12,30.00,5,1,10,0.00
2013-6-1,89.8,80.2,69.2,73.0,68.9,65.0,89,69,54,30.01,29.89,4,1,10,0.00
2013-6-2,83.0,75.5,68.2,74.0,69.2,66.0,100,81,65,29.89,29.81,7,1,12,0.60
2013-6-3,78.7,70.5,65.2,72.0,67.5,59.0,100,90,72,29.93,29.79,3,0,7,0.51
2013-6-4,74.8,65.2,57.2,59.0,52.5,47.0,88,66,44,30.10,29.93,5,1,8,0.00
2013-6-5,79.5,67.1,53.6,61.0,56.5,52.0,97,71,48,30.15,30.02,7,1,10,0.00
2013-6-6,71.9,66.7,62.0,65.0,61.2,54.0,100,83,64,30.05,29.82,9,1,12,0.50
2013-6-7,69.3,67.1,64.9,69.0,67.0,65.0,100,100,100,29.82,29.57,5,1,8,1.75
2013-6-8,77.8,69.2,62.9,67.0,64.3,62.0,100,85,62,30.06,29.68,2,0,6,0.00
2013-6-9,80.9,72.1,62.5,73.0,66.7,62.0,98,83,62,30.16,30.05,3,0,9,0.01
2013-6-10,79.9,71.6,68.2,76.0,71.0,68.0,100,98,86,30.07,29.76,5,1,10,1.97
2013-6-11,81.5,72.3,66.0,71.0,67.4,66.0,100,86,68,29.82,29.76,4,1,8,0.01
2013-6-12,87.1,76.8,65.9,73.0,69.2,64.0,96,78,59,29.84,29.75,4,1,8,0.01
2013-6-13,85.7,73.1,67.1,74.0,69.4,59.0,99,89,67,29.76,29.45,5,1,10,0.23
2013-6-14,77.2,68.3,59.7,62.0,57.7,54.0,93,70,52,29.95,29.57,8,2,14,0.01
2013-6-15,81.7,70.4,59.0,65.0,60.0,57.0,94,71,46,30.06,29.95,4,0,6,0.00
2013-6-16,83.2,72.7,62.8,72.0,65.8,59.0,94,79,64,30.00,29.86,3,0,7,0.00
2013-6-17,85.4,76.4,67.8,74.0,69.4,65.0,96,80,60,29.94,29.85,2,0,4,0.00
2013-6-18,73.5,69.6,64.6,71.0,68.2,64.0,100,95,85,29.88,29.77,2,0,6,0.10
2013-6-19,75.4,67.9,62.8,67.0,64.7,62.0,100,90,73,30.13,29.86,3,0,5,0.00
2013-6-20,80.5,70.2,61.6,67.0,62.2,56.0,100,78,56,30.25,30.13,5,1,9,0.00
2013-6-21,83.3,70.6,57.5,65.0,58.5,54.0,95,68,44,30.28,30.20,3,0,7,0.00
2013-6-22,86.2,74.7,62.3,71.0,66.9,62.0,99,78,57,30.23,30.10,3,1,10,0.00
2013-6-23,83.3,74.7,68.8,75.0,71.2,68.0,100,89,70,30.16,30.04,2,0,5,0.29
2013-6-24,88.5,76.7,70.4,78.0,72.2,68.0,100,86,62,30.10,30.00,3,0,4,0.00
2013-6-25,91.2,79.2,68.4,77.0,72.2,67.0,100,81,54,30.01,29.87,8,0,10,0.00
2013-6-26,88.0,75.9,67.6,78.0,71.5,66.0,99,87,65,29.89,29.78,4,0,5,0.20
2013-6-27,80.1,72.9,68.0,74.0,71.2,68.0,100,94,82,29.81,29.60,4,0,8,0.20
2013-6-28,86.7,73.6,68.1,76.0,71.5,68.0,100,94,64,29.61,29.46,3,0,8,0.28
2013-6-29,87.1,75.8,65.1,70.0,67.7,65.0,100,79,52,29.66,29.50,4,0,7,0.01
2013-6-30,85.2,76.2,71.0,78.0,73.5,69.0,100,91,76,29.82,29.66,2,0,7,0.57
2013-7-1,81.6,74.7,69.5,76.0,72.7,70.0,100,94,78,29.95,29.81,7,1,11,0.06
2013-7-2,80.7,75.6,72.4,75.0,73.5,72.0,100,93,82,30.14,29.95,4,1,9,0.11
2013-7-3,84.0,74.7,70.9,78.0,73.9,71.0,100,97,79,30.20,30.14,4,0,7,1.56
2013-7-4,88.4,79.5,72.6,78.0,74.5,73.0,100,86,64,30.23,30.13,6,1,10,0.01
2013-7-5,88.8,80.7,72.6,76.0,74.1,72.0,97,81,62,30.20,30.09,3,1,9,0.00
2013-7-6,91.4,81.9,74.2,78.0,74.8,72.0,97,80,60,30.16,30.04,4,1,6,0.00
2013-7-7,89.5,78.7,69.8,78.0,73.6,70.0,100,85,66,30.08,29.97,3,0,9,0.16
2013-7-8,84.1,75.2,69.4,76.0,71.5,69.0,100,89,64,30.08,30.01,2,0,5,0.06
2013-7-9,83.6,76.9,70.6,77.0,73.4,70.0,98,89,76,30.08,29.97,2,0,7,0.00
2013-7-10,86.9,78.4,73.4,79.0,75.1,71.0,98,90,69,29.98,29.83,2,0,5,0.02
2013-7-11,84.2,76.0,72.2,75.0,72.5,71.0,99,89,70,29.90,29.82,4,1,6,0.02
2013-7-12,72.1,67.4,65.8,71.0,66.3,-99.9,100,99,95,30.01,29.88,2,-11,4,2.05
2013-7-13,83.7,74.9,68.2,77.0,71.9,68.0,100,91,74,30.24,30.01,5,0,7,0.01
2013-7-14,89.0,80.2,74.0,77.0,74.6,73.0,100,84,61,30.31,30.24,3,0,8,0.00
2013-7-15,91.5,80.7,72.0,79.0,75.0,71.0,100,84,61,30.28,30.16,3,0,5,0.00
2013-7-16,91.5,82.1,74.6,79.0,75.4,73.0,96,81,61,30.21,30.13,3,0,6,0.00
2013-7-17,92.1,82.4,74.9,80.0,75.7,73.0,96,81,59,30.19,30.06,3,0,5,0.00
2013-7-18,94.0,83.9,75.3,82.0,78.1,74.0,97,84,62,30.09,29.96,3,0,4,0.00
2013-7-19,94.4,85.4,77.4,82.0,78.3,72.0,96,80,63,29.98,29.84,2,0,8,0.00
2013-7-20,91.0,82.4,76.6,80.0,75.5,71.0,94,80,62,29.87,29.76,3,0,6,0.00
2013-7-21,87.7,77.6,72.1,78.0,73.8,71.0,100,89,65,29.91,29.84,2,0,8,0.20
2013-7-22,88.0,78.6,72.1,78.0,74.8,72.0,100,89,68,29.90,29.73,3,0,8,0.19
2013-7-23,85.0,76.2,71.6,75.0,72.3,70.0,100,88,67,29.73,29.62,3,0,8,0.00
2013-7-24,81.8,74.6,69.3,72.0,68.7,63.0,97,82,64,29.89,29.66,4,1,8,0.00
2013-7-25,77.8,69.1,60.9,63.0,60.0,55.0,91,73,58,30.01,29.89,6,1,7,0.00
2013-7-26,82.1,71.4,60.9,67.0,63.5,60.0,99,78,53,30.07,30.00,3,0,5,0.00
2013-7-27,83.1,72.1,66.9,77.0,69.2,64.0,100,91,71,30.03,29.90,6,1,13,0.52
2013-7-28,82.2,72.9,68.3,75.0,70.8,68.0,100,93,75,29.96,29.86,2,0,5,0.11
2013-7-29,80.2,70.6,62.5,69.0,62.9,58.0,99,79,50,30.14,29.96,4,0,6,0.00
2013-7-30,79.4,70.0,60.4,67.0,62.9,59.0,95,79,57,30.21,30.11,2,0,5,0.00
2013-7-31,78.3,71.1,64.4,72.0,67.7,64.0,99,89,76,30.13,29.99,3,0,9,0.10
2013-8-1,80.0,71.8,67.2,74.0,70.4,67.0,100,95,80,29.99,29.79,2,0,5,0.32
2013-8-2,84.8,74.2,64.9,72.0,67.9,65.0,100,82,60,29.95,29.83,2,0,6,0.00
2013-8-3,75.2,70.0,66.9,71.0,67.8,66.0,100,93,79,29.95,29.89,2,0,5,0.14
2013-8-4,79.2,69.7,62.8,67.0,62.6,59.0,100,81,52,30.01,29.89,7,1,10,0.01
2013-8-5,78.8,67.1,57.6,64.0,59.7,56.0,96,79,50,30.09,29.99,3,0,6,0.00
2013-8-6,71.3,69.1,65.9,68.0,66.4,62.0,97,91,84,30.05,29.97,4,1,8,0.04
2013-8-7,83.7,73.8,68.3,77.0,71.3,67.0,99,92,76,30.05,29.96,4,1,9,0.06
2013-8-8,83.6,76.4,72.2,77.0,74.3,72.0,100,93,77,30.00,29.95,3,0,8,0.21
2013-8-9,87.8,80.0,74.3,80.0,75.6,73.0,99,87,73,29.95,29.83,4,1,8,0.02
2013-8-10,83.2,75.7,69.9,73.0,69.5,62.0,96,82,53,30.05,29.92,1,0,3,0.00
2013-8-11,84.1,75.6,70.3,73.0,70.2,68.0,99,84,59,30.08,29.98,3,0,7,0.00
2013-8-12,86.9,77.2,69.6,75.0,71.0,69.0,100,83,56,30.00,29.89,5,0,8,0.00
2013-8-13,83.2,75.2,69.5,76.0,72.4,69.0,100,91,72,29.88,29.71,5,0,8,1.07
2013-8-14,73.0,65.2,57.3,68.0,56.3,52.0,99,74,57,30.08,29.79,7,2,13,0.01
2013-8-15,77.3,64.1,54.1,59.0,55.2,49.0,100,76,40,30.17,30.07,2,0,4,0.00
2013-8-16,76.3,65.6,55.3,63.0,58.5,55.0,99,79,54,30.18,30.11,4,0,5,0.00
2013-8-17,79.0,67.3,56.0,64.0,60.0,56.0,100,79,55,30.24,30.18,3,0,8,0.00
2013-8-18,69.2,66.3,63.5,67.0,64.7,63.0,100,94,84,30.21,30.15,2,0,3,0.12
2013-8-19,73.1,67.1,60.6,69.0,65.1,60.0,100,93,85,30.16,30.05,3,0,3,0.00
2013-8-20,85.3,74.0,63.3,73.0,69.1,63.0,100,86,60,30.14,30.06,3,0,4,0.00
2013-8-21,87.0,76.4,68.8,77.0,72.6,68.6,100,89,70,30.17,30.04,2,0,7,0.08
2013-8-22,85.8,76.5,68.9,73.0,71.1,69.0,100,84,61,30.06,29.91,4,0,6,0.00
2013-8-23,73.0,69.0,61.9,71.0,67.7,62.0,100,95,89,30.09,29.91,2,0,4,0.12
2013-8-24,81.4,68.4,58.8,67.0,62.4,59.0,100,83,54,30.31,30.10,3,0,6,0.00
2013-8-25,81.5,69.6,60.2,67.0,62.0,57.0,100,79,54,30.39,30.24,3,0,6,0.00
2013-8-26,85.9,73.0,62.3,68.0,64.0,58.0,92,75,53,30.27,29.99,2,0,5,0.00
2013-8-27,87.1,77.3,69.6,76.0,71.3,67.0,92,82,64,29.98,29.86,4,0,6,0.00
2013-8-28,75.5,73.4,71.7,75.0,72.5,70.0,100,97,87,29.89,29.79,1,0,3,0.20
2013-8-29,83.2,74.6,70.3,76.0,71.7,70.0,100,91,71,30.00,29.80,4,0,6,0.00
2013-8-30,85.1,75.8,68.5,74.0,71.2,68.0,99,86,66,30.02,29.86,5,0,7,0.00
2013-8-31,88.5,77.9,69.5,77.0,72.7,69.0,98,84,66,29.87,29.77,3,0,8,0.00
2013-9-1,90.9,78.0,68.2,76.0,72.4,68.0,99,84,58,29.82,29.73,3,0,7,0.00
2013-9-2,86.7,77.2,68.9,77.0,72.7,69.0,100,87,65,29.78,29.69,3,0,6,0.28
2013-9-3,82.3,74.2,66.7,75.0,66.6,59.0,100,79,55,29.94,29.70,5,1,8,0.00
2013-9-4,81.3,68.6,57.8,62.0,58.4,55.0,95,72,42,30.06,29.94,3,0,6,0.00
2013-9-5,82.2,69.6,59.9,69.0,61.5,55.0,96,77,59,30.10,29.98,5,1,8,0.00
2013-9-6,75.2,63.4,54.3,56.0,52.8,48.0,92,70,45,30.24,30.11,4,0,5,0.00
2013-9-7,79.1,65.6,52.5,66.0,59.6,52.0,99,82,58,30.12,29.91,3,0,6,0.00
2013-9-8,85.2,73.2,64.2,71.0,66.5,63.0,98,81,60,30.02,29.85,2,0,5,0.00
2013-9-9,77.5,69.6,61.1,70.0,61.2,53.0,92,75,66,30.18,30.02,3,1,7,0.00
2013-9-10,89.9,78.8,71.0,77.0,73.3,70.0,97,84,62,30.15,30.05,4,1,6,0.00
2013-9-11,92.1,81.1,72.4,79.0,74.6,72.0,99,82,57,30.11,29.97,3,0,7,0.00
2013-9-12,89.8,75.8,69.2,78.0,72.1,69.0,100,89,64,29.97,29.72,4,0,9,0.17
2013-9-13,75.7,67.9,59.8,69.0,60.7,52.0,100,80,50,29.92,29.68,7,1,10,0.01
2013-9-14,68.6,58.3,51.5,53.0,49.4,47.0,90,73,53,30.14,29.93,5,1,8,0.00
2013-9-15,75.3,60.7,46.3,60.0,53.3,46.0,98,79,54,30.21,30.07,4,0,7,0.00
2013-9-16,70.6,62.9,56.6,63.0,59.5,56.0,99,89,69,30.21,30.02,3,0,6,0.06
2013-9-17,67.3,56.8,49.2,56.0,48.8,44.0,98,77,46,30.41,30.22,4,1,7,0.00
2013-9-18,71.2,56.1,43.8,53.0,48.4,43.0,99,78,46,30.33,30.17,3,0,6,0.00
2013-9-19,76.0,62.6,50.0,62.0,56.4,49.0,100,82,60,30.19,30.06,5,0,8,0.00
2013-9-20,79.4,66.6,55.3,66.0,60.5,55.0,99,82,61,30.07,29.93,4,0,10,0.00
2013-9-21,73.0,65.8,61.0,67.0,63.0,59.0,100,91,75,29.94,29.67,5,1,10,1.22
2013-9-22,70.2,61.5,53.7,62.0,56.9,51.0,100,86,61,29.93,29.71,4,0,8,0.00
2013-9-23,64.7,55.7,49.1,51.0,49.4,47.0,95,80,58,30.07,29.93,3,0,7,0.00
2013-9-24,70.5,55.2,44.3,55.0,49.4,44.0,99,83,55,30.10,29.93,3,0,7,0.00
2013-9-25,71.6,57.5,46.9,57.0,51.3,46.0,99,82,49,29.98,29.86,4,0,4,0.00
2013-9-26,74.0,60.4,51.7,58.0,54.5,51.0,100,83,53,30.05,29.91,3,0,6,0.00
2013-9-27,70.3,60.2,52.1,63.0,57.4,52.0,99,91,71,30.22,30.05,3,0,6,0.00
2013-9-28,66.0,59.4,54.1,59.0,56.1,53.0,99,89,73,30.28,30.20,3,0,5,0.00
2013-9-29,72.0,58.4,47.8,60.0,54.8,48.0,100,89,63,30.20,30.04,2,0,4,0.00
2013-9-30,73.4,60.3,49.5,60.0,55.2,49.0,100,85,60,30.08,29.96,2,0,4,0.00
2013-10-1,79.0,65.7,55.3,65.0,60.2,55.0,98,84,58,30.06,29.95,3,0,5,0.00
2013-10-2,82.5,68.6,56.8,67.0,62.0,56.0,100,81,53,30.07,29.97,4,0,6,0.00
2013-10-3,80.1,69.0,59.0,70.0,64.5,58.0,99,86,65,30.10,30.02,2,0,3,0.00
2013-10-4,83.9,70.6,60.1,71.0,66.0,60.0,100,86,59,30.07,29.99,3,0,6,0.00
2013-10-5,85.9,73.5,64.1,72.0,68.0,64.0,100,84,59,30.07,29.97,2,0,5,0.00
2013-10-6,85.3,75.0,66.3,72.0,68.3,66.0,99,81,59,29.99,29.89,10,1,10,0.00
2013-10-7,72.6,64.7,52.7,71.0,63.1,50.0,100,94,87,30.04,29.76,5,1,14,1.08
2013-10-8,65.9,55.2,47.5,55.0,50.7,47.0,98,86,60,30.27,30.04,4,0,6,0.01
2013-10-9,60.0,54.1,50.2,54.0,51.7,48.0,99,92,80,30.30,30.20,4,1,7,0.18
2013-10-10,56.2,53.4,51.2,56.0,53.4,51.0,100,100,99,30.20,29.98,5,1,9,1.74
2013-10-11,60.8,57.8,54.8,61.0,57.8,55.0,100,100,100,29.98,29.92,4,1,5,3.61
2013-10-12,64.7,61.0,59.6,63.0,60.7,60.0,100,99,91,30.14,29.96,3,1,6,0.43
2013-10-13,61.3,58.9,56.5,60.0,58.6,56.0,100,99,94,30.30,30.14,6,1,9,0.05
2013-10-14,66.6,57.9,51.6,59.0,55.5,52.0,100,92,72,30.32,30.21,2,0,4,0.00
2013-10-15,68.6,57.4,49.5,59.0,52.9,49.0,100,87,52,30.22,30.07,3,0,5,0.00
2013-10-16,69.2,63.5,59.0,64.0,61.4,59.0,100,93,82,30.07,29.89,3,0,5,0.01
2013-10-17,74.1,65.5,59.0,67.0,63.0,58.0,100,92,76,29.89,29.70,4,0,9,0.14
2013-10-18,63.8,55.6,48.1,57.0,48.1,45.0,95,77,55,30.00,29.80,4,1,10,0.00
2013-10-19,63.9,54.2,44.5,59.0,51.7,44.0,100,91,75,29.98,29.77,5,0,11,0.00
2013-10-20,60.3,51.3,43.9,50.0,41.6,38.0,92,71,46,30.08,29.85,5,1,8,0.00
2013-10-21,64.1,52.2,38.8,48.0,44.1,38.0,99,77,45,30.13,29.95,6,1,10,0.00
2013-10-22,59.0,50.9,45.7,54.0,45.2,-99.9,96,84,72,29.94,29.81,1,-12,5,0.00
2013-10-23,55.3,48.3,43.8,43.0,40.5,38.0,89,75,52,29.89,29.65,5,1,9,0.00
2013-10-24,49.9,43.0,37.6,38.0,34.0,30.0,89,72,51,30.12,29.90,4,1,10,0.00
2013-10-25,52.1,42.1,34.1,37.0,33.8,32.0,92,74,54,30.31,30.12,7,1,8,0.00
2013-10-26,54.1,43.3,30.8,35.0,32.2,29.0,100,68,44,30.30,29.93,7,1,8,0.00
2013-10-27,58.1,47.7,39.4,42.0,38.6,35.0,92,72,51,30.13,29.95,4,0,7,0.00
2013-10-28,61.4,45.9,34.4,46.0,39.9,33.0,98,82,50,30.27,30.13,1,0,5,0.00
2013-10-29,61.4,48.0,36.8,47.0,42.4,36.0,98,83,55,30.37,30.26,2,0,3,0.00
2013-10-30,64.7,54.9,46.4,57.0,52.3,45.0,100,91,77,30.30,30.13,3,0,6,0.01
2013-10-31,66.8,60.9,54.3,62.0,58.5,54.0,100,92,82,30.16,29.76,5,1,10,0.00
2013-11-1,72.1,65.9,58.5,65.0,61.6,58.0,99,86,65,29.75,29.56,9,2,20,0.02
2013-11-2,65.1,56.0,47.6,57.0,48.6,41.0,98,78,55,29.86,29.62,4,0,8,0.00
2013-11-3,55.3,47.3,38.6,43.0,36.3,28.0,90,67,39,30.44,29.86,7,1,14,0.00
2013-11-4,44.7,37.5,29.2,30.0,26.8,24.0,88,67,48,30.63,30.44,3,0,6,0.00
2013-11-5,55.7,45.1,33.6,47.0,39.7,30.0,91,82,70,30.60,30.45,2,0,7,0.00
2013-11-6,68.0,45.7,50.3,55.0,18.4,-99.9,90,62,63,30.45,30.04,4,1,8,0.00
2013-11-7,59.7,53.2,42.4,57.0,47.6,27.0,97,82,53,30.06,29.86,8,2,14,0.01
2013-11-8,49.6,41.1,32.2,33.0,28.9,27.0,85,63,44,30.31,30.05,10,1,17,0.00
2013-11-9,54.4,42.5,28.4,33.0,30.1,26.0,94,65,42,30.34,30.02,8,1,10,0.00
2013-11-10,61.7,49.3,42.0,40.0,32.8,30.0,67,54,36,30.21,29.95,6,2,15,0.00
2013-11-11,57.7,47.7,35.5,34.0,31.7,29.0,82,56,39,30.29,29.98,8,2,11,0.00
2013-11-12,51.9,39.7,28.4,39.0,25.4,17.0,74,57,47,30.39,29.96,9,3,16,0.00
2013-11-13,41.2,33.5,27.9,25.0,21.6,19.0,76,62,49,30.47,30.38,7,2,11,0.00
2013-11-14,57.8,39.4,25.1,28.0,23.3,19.0,84,56,25,30.37,30.21,5,0,6,0.00
2013-11-15,60.7,44.7,29.1,43.0,30.2,25.0,93,60,31,30.27,30.17,4,0,7,0.01
2013-11-16,50.9,48.1,42.2,51.0,47.6,42.0,100,98,94,30.30,30.21,3,0,6,0.00
2013-11-17,60.2,56.2,50.5,59.0,55.4,51.0,100,97,92,30.21,29.73,7,1,11,0.02
2013-11-18,67.3,58.5,48.3,62.0,42.1,30.0,98,59,28,29.92,29.68,8,3,15,0.23
2013-11-19,48.0,42.6,35.6,31.0,29.1,27.0,74,59,50,30.35,29.93,7,3,15,0.00
2013-11-20,47.1,36.5,30.0,29.0,26.7,25.0,87,69,45,30.55,30.36,4,1,6,0.00
2013-11-21,47.1,39.1,27.8,40.0,33.6,26.0,95,81,68,30.55,30.37,1,0,5,0.00
2013-11-22,61.7,54.3,45.4,53.0,48.7,40.0,88,81,72,30.36,29.98,6,1,11,0.00
2013-11-23,55.4,43.0,30.9,50.0,29.6,15.0,82,60,44,30.20,30.02,9,4,15,0.00
2013-11-24,31.3,26.2,22.3,14.0,9.3,6.0,62,49,41,30.52,30.20,14,4,19,0.00
2013-11-25,36.0,28.2,18.8,15.0,11.9,10.0,73,52,37,30.57,30.33,6,2,9,0.00
2013-11-26,40.0,34.6,32.6,40.0,28.8,14.0,100,82,45,30.33,29.61,5,1,10,0.67
2013-11-27,38.5,35.4,27.8,38.0,31.9,17.0,100,88,64,30.03,29.51,11,4,16,0.47
2013-11-28,37.0,30.2,24.6,25.0,18.9,15.0,81,64,50,30.46,30.03,8,2,15,0.00
2013-11-29,40.1,31.5,23.2,25.0,22.6,20.0,92,71,51,30.71,30.44,6,1,15,0.00
2013-11-30,36.6,29.2,20.5,26.0,21.9,18.0,94,75,55,30.71,30.36,3,0,5,0.00
2013-12-1,47.7,35.8,23.2,33.0,28.3,22.0,95,76,55,30.36,30.00,2,0,4,0.00
2013-12-2,48.3,42.5,38.8,40.0,37.1,33.0,89,81,71,30.00,29.86,2,0,3,0.00
2013-12-3,55.8,44.4,36.8,42.0,38.5,35.0,95,81,57,29.97,29.87,4,0,8,0.00
2013-12-4,55.1,47.1,37.2,51.0,43.8,36.0,97,89,79,30.06,29.97,3,0,5,0.00
2013-12-5,69.1,60.1,52.8,63.0,57.5,51.0,99,91,74,30.05,29.90,9,2,11,0.00
2013-12-6,65.1,49.5,37.6,64.0,48.9,37.0,99,98,90,30.14,29.85,8,3,13,0.82
2013-12-7,39.7,35.7,29.4,37.0,31.2,23.0,99,84,68,30.53,30.12,9,3,17,0.20
2013-12-8,30.6,27.9,26.3,30.0,25.1,20.0,98,89,73,30.58,30.29,5,1,8,0.19
2013-12-9,33.2,31.9,30.6,33.0,31.7,30.0,100,99,98,30.30,30.02,3,0,3,0.65
2013-12-10,35.2,31.1,25.8,35.0,29.9,23.0,100,95,82,30.21,29.98,6,1,8,0.10
2013-12-11,38.8,28.3,20.6,26.0,22.4,19.0,94,80,53,30.40,30.22,5,0,6,0.12
2013-12-12,30.6,25.7,21.2,23.0,16.7,11.0,93,70,52,30.43,30.24,10,2,11,0.00
2013-12-13,39.8,30.9,20.7,25.0,19.6,14.0,83,64,45,30.30,30.21,5,1,7,0.09
2013-12-14,37.3,33.4,30.1,34.0,30.6,24.0,99,89,74,30.31,29.71,4,0,8,0.59
2013-12-15,44.8,35.3,28.8,39.0,30.7,24.0,100,84,66,29.93,29.62,12,2,14,0.15
2013-12-16,35.1,33.2,31.0,28.0,26.1,23.0,82,75,66,30.17,29.93,4,1,9,0.00
2013-12-17,37.8,34.7,32.3,33.0,30.6,27.0,94,85,79,30.15,29.92,4,1,9,0.00
2013-12-18,40.3,32.8,27.6,31.0,25.6,23.0,97,76,55,30.21,29.98,11,1,11,0.01
2013-12-19,59.3,32.3,26.4,35.0,2.7,-99.9,89,53,38,30.19,30.06,10,2,12,0.00
2013-12-20,59.5,43.7,45.5,44.0,11.0,-99.9,59,43,42,30.09,29.98,10,3,17,0.00
2013-12-21,70.8,61.9,52.6,63.0,52.9,43.0,85,73,60,30.00,29.86,12,3,18,0.00
2013-12-22,70.8,64.2,61.2,65.0,61.8,60.0,99,91,78,29.98,29.80,10,3,18,0.03
2013-12-23,62.4,51.1,37.3,62.0,43.6,-99.9,100,87,73,30.22,29.89,9,3,16,0.17
2013-12-24,39.5,31.6,22.4,29.0,19.4,-99.9,86,65,48,30.47,30.18,9,3,17,0.00
2013-12-25,31.5,24.7,19.0,20.0,13.6,11.0,81,63,48,30.57,30.37,5,1,8,0.00
2013-12-26,43.3,31.5,24.0,26.0,22.2,20.0,89,70,47,30.37,30.21,4,1,10,0.00
2013-12-27,49.5,35.8,25.8,25.0,23.0,20.0,86,62,34,30.42,30.30,8,1,11,0.00
2013-12-28,57.8,44.0,30.1,33.0,26.8,23.0,76,53,34,30.32,30.10,5,1,9,0.00
2013-12-29,47.1,44.1,40.2,46.0,40.0,29.0,100,88,49,30.09,29.54,7,1,8,0.75
2013-12-30,43.7,37.9,31.5,40.0,32.9,23.0,97,83,70,30.17,29.80,8,2,14,0.01
2013-12-31,42.6,33.6,27.6,31.0,23.1,18.0,79,66,49,30.32,30.10,10,2,16,0.00
2014-1-1,44.5,34.8,25.2,32.0,26.5,19.0,85,72,54,30.41,30.11,5,1,8,0.00
2014-1-2,36.1,32.4,28.5,33.0,30.4,27.0,98,92,78,30.10,29.61,5,0,6,0.01